Regional Weather Roundup
Issued by NWS Boston, MA

Home | Current Version | Previous Version | Text Only | Print | Product List | Glossary On
Versions: 1 2 3 4 5 6 7 8 9 10 11 12 13 14 15 16 17 18 19 20 21 22 23 24 25 26 27 28 29 30 31 32 33 34 35 36 37 38 39 40 41 42 43 44 45 46 47 48 49 50
328
ASUS41 KBOX 180810
RWRBOX

REGIONAL WEATHER ROUNDUP
NATIONAL WEATHER SERVICE TAUNTON MA
300 AM EST SAT NOV 18 2017

NOTE:  "FAIR" INDICATES FEW OR NO CLOUDS BELOW 12,000 FEET WITH NO
SIGNIFICANT WEATHER AND/OR OBSTRUCTIONS TO VISIBILITY.

MAZALL-180900-
EASTERN MASSACHUSETTS

CITY           SKY/WX    TMP DP  RH WIND       PRES   REMARKS
BOSTON         CLEAR     32  15  49 W8        29.99S WCI  25
BEVERLY        CLEAR     28  14  55 CALM      29.98R
LAWRENCE       CLEAR     30  15  53 SW5       29.99S WCI  25
BEDFORD        CLEAR     22  18  85 CALM      29.97F
BLUE HILL      NOT AVBL
NORWOOD        CLEAR     23  19  85 CALM      30.00F
MARSHFIELD     CLEAR     28  18  64 W5        29.98F WCI  23
PLYMOUTH       CLEAR     25  20  81 CALM      29.99F
TAUNTON        CLEAR     23  19  85 CALM      30.00F
NEW BEDFORD    CLEAR     28  20  71 CALM      30.00S
$$

MAZALL-180900-
CAPE COD AND THE ISLANDS

CITY           SKY/WX    TMP DP  RH WIND       PRES   REMARKS
FALMOUTH       CLEAR     28  19  69 W5        30.00F WCI  23
HYANNIS        CLEAR     32  17  54 W5        29.97F WCI  27
CHATHAM        CLEAR     33  23  66 SW3       29.99F
PROVINCETOWN   CLEAR     36  19  50 NW12      29.98F WCI  28
NANTUCKET      CLEAR     37  20  50 NW9       29.99F WCI  30
MARTHAS VNYRD  CLEAR     28  18  66 NW6       30.00F WCI  22
$$

MAZALL-180900-
CENTRAL AND WESTERN MASSACHUSETTS

CITY           SKY/WX    TMP DP  RH WIND       PRES   REMARKS
WORCESTER      CLOUDY    26  14  60 W6        29.93F WCI  19
FITCHBURG      CLOUDY    26  19  74 N3        29.96F
ORANGE         PTCLDY    20  19  96 SE3       29.97F
SPRINGFIELD    NOT AVBL
WESTFIELD      CLOUDY    23  21  92 CALM      29.99F
NORTH ADAMS    CLOUDY    21  18  88 CALM      29.99F
PITTSFIELD     PTCLDY    22  16  78 W5        29.95F WCI  16
$$

RIZALL-180900-
RHODE ISLAND

CITY           SKY/WX    TMP DP  RH WIND       PRES   REMARKS
PROVIDENCE     PTCLDY    27  21  78 CALM      30.02F
NEWPORT        CLEAR     32  21  64 W6        30.00F WCI  26
BLOCK ISLAND   CLEAR     37  22  54 W3        30.02F
SMITHFIELD     CLOUDY    25  20  81 SW3       29.98F
WESTERLY       PTCLDY    28  19  69 CALM      30.03F
$$

CTZALL-180900-
CONNECTICUT

CITY           SKY/WX    TMP DP  RH WIND       PRES   REMARKS
BRADLEY INTL   PTCLDY    26  18  71 SW3       30.00F
HARTFORD       CLOUDY    27  22  81 CALM      30.01F
BRIDGEPORT     PTCLDY    32  19  58 W6        30.04S WCI  26
DANBURY        CLOUDY    25  17  72 CALM      30.02S
GROTON         CLEAR     28  19  69 CALM      30.02F
NEW HAVEN      MOCLDY    36  16  44 W3        30.03F
CHESTER        FAIR      27  16  63 CALM      29.99F
MERIDEN        CLOUDY    23  20  88 CALM      30.01F
WILLIMANTIC    CLOUDY    25  20  81 CALM      30.02F
OXFORD         CLOUDY    25  15  66 SW3       30.00F
$$

MEZ002-015-021-024-NHZ003-005-008-011-012-014-VTZ005-008-180900-
NORTHERN NEW ENGLAND

CITY           SKY/WX    TMP DP  RH WIND       PRES   REMARKS
PORTLAND ME    CLEAR     23  16  74 W6        29.95F WCI  16
BANGOR ME      CLEAR     26  16  65 W8G17     29.88R WCI  18
CONCORD NH     CLEAR     24  14  65 W6        29.97S WCI  17
MANCHESTER NH  CLEAR     29  13  51 W5        29.96R WCI  24
NASHUA NH      CLEAR     24  19  81 CALM      29.98S
PORTSMOUTH NH  CLEAR     25  14  62 CALM      29.93F
JAFFREY NH     CLOUDY    24  17  74 CALM      29.92F
KEENE NH       CLOUDY    19  17  92 CALM      29.98F
BURLINGTON VT  CLOUDY    21  17  84 SE3       30.00F
MT. WASHINGTON PTCLDY    21 -18  16 NW56        N/A  WCI  -2
$$

NYZ052-076-180900-
EASTERN NEW YORK

CITY           SKY/WX    TMP DP  RH WIND       PRES   REMARKS
ALBANY         CLOUDY    23  17  78 CALM      30.01F
NEW YORK CITY  PTCLDY    39  18  42 CALM      30.01F
$$

ANZALL-180900-
MARINE OBSERVATIONS

STATION/POSITION TIME  TEMP    WIND        PRES    VSBY  WAVE
                       AIR SEA DIR/SP/G                  HT/PER
                 (UTC) (F)     (DEG/KT/KT) (MB)    (MI)  (FT/S)
BOSTON BUOY      0750   36 51  300/ 12/ 14 1014.1S         3/ 3
BUZZARDS BAY     0700   38     290/ 13/ 15 1016.8F
NANTUCKET SOUND  0750   38 48  310/ 14/ 17 1015.6F         2/ 4
MASS BAY-STELLWA 0704   35 50  330/ 14/ 17 1014.6R         2/ 3
ISLE OF SHOALS   0700   31     290/ 16/ 18 1014.6S
S OF BLOCK IS    NOT AVBL
$$

......................KEY.........................
  SKY/WX - SKY CONDITION/PRESENT WEATHER
  TMP    - TEMPERATURE IN FAHRENHEIT
  DWPT   - DEWPOINT IN FAHRENHEIT
  RH     - RELATIVE HUMIDITY IN PERCENT
  WIND   - DIRECTION AND SPEED IN MPH
  PRES   - MEAN SEA LEVEL PRESSURE IN INCHES OF HG
  WCI    - WIND CHILL INDEX
  VSB    - VISIBILITY IN MILES
  HX     - HEAT INDEX
  TC     - TEMPERATURE IN CELSIUS
  VRB    - VARIABLE WIND DIRECTION
  N/A    - NOT AVAILABLE




USA.gov is the U.S. government's official web portal to all federal, state and local government web resources and services.